ARIANE 1 DEB, 48260

Orbit data source: Space-Track

ARIANE 1 DEB, 48260 is space debris originally from a launch on Mon, 24 Dec 1979 UTC launched from the French Guiana (FRGUI). Debris objects in space refer to the collection of defunct objects orbiting the Earth. Examples of debris include non-operational satellites, rocket bodies, and fragments generated from explosions, collisions, or faulty payload assembly.

Loading next visibility...
Identifier
48260, 1979-104AL
Orbit
Active
Country
Flag of FRFR
Related business
Manufacturer
Unknown
Mission
Spacecraft
Bus & Motor
Unknown
Mass
Unknown
Launch date (UTC)
1979-12-24 (46 years ago)
Launch vehicle
Unknown
Launch site
French Guiana (FRGUI)
Object type
Payload
Rocket body
Debris
Shape & HBR
Unknown shape, 0.1 m
Radar Cross Section
Medium (>0.1 m² and <1 m²)

Expand to show TLE details & history
Last TLE update: 4 days ago

TLE from 4 days ago
0 ARIANE 1 DEB
1 48260U 79104AL  26169.44257534  .00005566  00000-0  64589-3 0  9996
2 48260  23.0233 216.0386 4119624 202.0628 133.3764  7.15892704 54928
Epoch: 2026-06-18T10:37Z
TLE epoch observation values (Epoch: 2026-06-18T10:37:18.509Z)
Latitude
Longitude
150.02564°
Altitude
8,894.454 km
Speed
4.142 km/s
True Right ascension
14h 24m 09s
True Declination
0° 00' 00"
Sunlit
Object was in daylight at epoch
Visualization orbit readout
Latitude
Unknown
Longitude
Unknown
Altitude
Unknown
Speed
Unknown
Apparent Right ascension
Unknown
Apparent Declination
Unknown
Sunlit
N/A
Visualization observer readout
Local Sidereal Time
21:39:58
Azimuth
Unknown
Elevation
Unknown
Doppler factor
Unknown
Orbital elements
Apogee altitude
9,684.269 km
Perigee altitude
311.346 km
Semi-major axis
11,375.945 km
Eccentricity
0.41196
Inclination
23.0233°
RAAN
216.0386°
Arg. of periapsis
202.0628°
True anomaly
157.96861°
Mean anomaly
133.3764°
Eccentric anomaly
146.42866°
Mean motion
1.7888 °/min
Orbital period
201.25 mins
BSTAR
0.00064589
Loading maneuver chart data...
Computing Atmospheric mass density...
Loading historical data...
Loading historical data...
Loading historical data...
Loading historical data...
Loading historical data...
Loading historical data...
Loading historical data...

Documentation

Showing up to 5 results
|